Weather reports worldwide

Advertisment
Wick Airport (AWS), United Kingdom (3075): temperature & dewpoint: 23.05.2020 14:00:00 - 29.05.2020 14:00:00 (BST)Wick Airport (AWS), United Kingdom (3075): temperature -20cm: 23.05.2020 14:00:00 - 29.05.2020 14:00:00 (BST)Wick Airport (AWS), United Kingdom (3075): wind speed & gusts: 23.05.2020 14:00:00 - 29.05.2020 14:00:00 (BST)Wick Airport (AWS), United Kingdom (3075): wind direction: 23.05.2020 14:00:00 - 29.05.2020 14:00:00 (BST)Wick Airport (AWS), United Kingdom (3075): reduced air pressure: 23.05.2020 14:00:00 - 29.05.2020 14:00:00 (BST)Wick Airport (AWS), United Kingdom (3075): visibility: 23.05.2020 14:00:00 - 29.05.2020 14:00:00 (BST)Wick Airport (AWS), United Kingdom (3075): precipitation: 23.05.2020 14:00:00 - 29.05.2020 14:00:00 (BST)
Date & Time tt [°C] td [°C] tt -20cm [°C] ff [km/h] ff [kn] fx [km/h] fx [kn] dd ppp [hPa] vv [km] rr [mm]
29.05.2020 14:00:00 14,1 10,1 - 16 9 - - SE 1026,2 17 0,0
29.05.2020 13:00:00 13,9 10,4 - 16 9 - - ESE 1026,6 19 0,0
29.05.2020 12:00:00 13,8 11,0 - 18 10 - - SE 1026,9 30 0,0
29.05.2020 11:00:00 12,9 10,3 - 16 9 - - SE 1027,4 10 0,0
29.05.2020 10:00:00 12,5 9,8 11,7 13 7 - - SE 1027,6 12 0,0
29.05.2020 09:00:00 11,5 9,7 - 16 9 - - ESE 1027,8 12 0,0
29.05.2020 08:00:00 11,6 9,9 - 16 9 - - ESE 1027,9 18 0,0
29.05.2020 07:00:00 10,8 9,6 - 13 7 - - ESE 1028,2 12 0,0
29.05.2020 06:00:00 9,6 8,9 - 11 6 - - E 1028,4 15 0,0
29.05.2020 05:00:00 9,5 8,8 - 13 7 - - E 1028,5 16 0,0
29.05.2020 04:00:00 10,1 9,2 - 15 8 - - ESE 1028,8 22 0,0
29.05.2020 03:00:00 10,3 9,4 - 15 8 - - ESE 1029,2 40 0,0
29.05.2020 02:00:00 10,7 9,6 - 13 7 - - ESE 1029,6 35 0,0
29.05.2020 01:00:00 10,6 9,6 - 8 4 - - SE 1029,8 40 0,0
29.05.2020 00:00:00 10,7 9,9 - 8 4 - - SSE 1030,2 29 0,0
28.05.2020 23:00:00 10,0 9,3 - 8 4 - - SE 1030,5 21 0,0
28.05.2020 22:00:00 10,2 9,3 - 9 5 - - ESE 1030,7 19 0,0
28.05.2020 21:00:00 11,2 10,3 - 5 3 - - E 1030,5 26 0,0
28.05.2020 20:00:00 11,5 10,4 - 4 2 - - ENE 1030,6 21 0,0
28.05.2020 19:00:00 11,6 9,9 - 9 5 - - ENE 1030,8 30 0,0
28.05.2020 18:00:00 12,0 10,3 - 11 6 - - E 1030,9 30 0,0
28.05.2020 17:00:00 13,2 11,1 - 16 9 - - N 1030,8 24 0,0
28.05.2020 16:00:00 13,2 11,1 - 9 5 - - N 1030,8 21 0,0
28.05.2020 15:00:00 11,6 10,1 - 11 6 - - SE 1031,1 15 0,0
28.05.2020 14:00:00 12,2 10,3 - 16 9 - - ESE 1031,1 26 0,0
28.05.2020 13:00:00 14,1 11,7 - 13 7 - - NE 1030,8 18 0,0
28.05.2020 12:00:00 15,5 12,4 - 11 6 - - N 1030,6 45 0,0
28.05.2020 11:00:00 15,0 12,0 - 15 8 - - SW 1030,6 50 0,0
28.05.2020 10:00:00 12,9 12,0 11,7 9 5 - - S 1030,7 30 0,0
28.05.2020 09:00:00 10,5 9,9 - 8 4 - - S 1030,9 15 0,0
28.05.2020 08:00:00 9,7 9,2 - 18 10 - - SSE 1031,1 12 0,0
28.05.2020 07:00:00 9,4 9,0 - 21 11 - - SSE 1031,2 8 0,2
28.05.2020 06:00:00 9,2 8,6 - 18 10 - - SSE 1031,5 8 0,4
28.05.2020 05:00:00 9,3 8,4 - 21 11 - - SSE 1031,8 10 0,0
28.05.2020 04:00:00 9,3 8,6 - 18 10 - - SSE 1032,1 13 0,2
28.05.2020 03:00:00 9,7 9,0 - 21 11 - - SSE 1032,5 11 1,2
28.05.2020 02:00:00 9,3 8,2 - 15 8 - - SE 1033,4 7 1,2
28.05.2020 01:00:00 9,5 7,6 - 15 8 - - SE 1034,1 13 0,4
28.05.2020 00:00:00 9,6 8,2 - 15 8 - - ESE 1034,4 13 0,2
27.05.2020 23:00:00 9,9 7,7 - 18 10 - - ESE 1035,1 21 0,0
27.05.2020 22:00:00 9,9 7,3 - 15 8 - - E 1036,0 20 0,0
27.05.2020 21:00:00 10,1 7,4 - 13 7 - - SE 1036,4 25 0,0
27.05.2020 20:00:00 10,5 5,7 - 9 5 - - SE 1036,4 27 0,0
27.05.2020 19:00:00 11,4 5,1 - 13 7 - - ENE 1036,5 17 0,0
27.05.2020 18:00:00 11,7 6,9 - 15 8 - - E 1036,9 27 0,0
27.05.2020 17:00:00 11,5 6,1 - 11 6 - - ESE 1037,3 21 0,0
27.05.2020 16:00:00 11,9 6,2 - 13 7 - - SE 1037,3 29 0,0
27.05.2020 15:00:00 13,4 5,5 - 15 8 - - WNW 1036,9 25 0,0
27.05.2020 14:00:00 13,7 6,1 - 21 11 - - WNW 1037,0 30 0,0
27.05.2020 13:00:00 14,2 5,9 - 18 10 - - WNW 1037,2 24 0,0
27.05.2020 12:00:00 14,3 5,5 - 24 13 - - WNW 1037,0 23 0,0
27.05.2020 11:00:00 13,4 5,7 - 22 12 - - WNW 1036,8 35 0,0
27.05.2020 10:00:00 11,0 7,3 11,4 24 13 - - W 1036,7 14 0,0
27.05.2020 09:00:00 12,2 6,0 - 21 11 - - W 1036,2 16 0,0
27.05.2020 08:00:00 10,7 5,4 - 18 10 - - WSW 1036,2 30 0,0
27.05.2020 07:00:00 10,0 5,4 - 13 7 - - SW 1035,8 18 0,0
27.05.2020 06:00:00 8,5 5,3 - 13 7 - - WSW 1035,7 27 0,0
27.05.2020 05:00:00 8,8 4,6 - 9 5 - - SW 1035,5 30 0,0
27.05.2020 04:00:00 8,8 4,5 - 15 8 - - SW 1035,5 29 0,0
27.05.2020 03:00:00 9,0 3,7 - 9 5 - - SSW 1035,4 30 0,0
27.05.2020 02:00:00 9,3 4,0 - 16 9 - - SW 1035,5 26 0,0
27.05.2020 01:00:00 8,3 4,6 - 21 11 - - WSW 1035,6 27 0,0
27.05.2020 00:00:00 8,5 4,7 - 13 7 - - WSW 1035,7 35 0,0
26.05.2020 23:00:00 9,4 3,9 - 8 4 - - WSW 1035,5 35 0,0
26.05.2020 22:00:00 9,3 3,6 - 8 4 - - W 1035,3 35 0,0
26.05.2020 21:00:00 11,6 4,3 - 29 16 - - W 1034,8 35 0,0
26.05.2020 20:00:00 13,5 3,7 - 28 15 - - W 1034,6 50 0,0
26.05.2020 19:00:00 15,4 5,1 - 18 10 - - W 1034,0 30 0,0
26.05.2020 18:00:00 14,8 3,2 - 24 13 - - WSW 1033,7 26 0,0
26.05.2020 17:00:00 14,6 7,5 - 13 7 - - NNW 1033,7 14 0,0
26.05.2020 16:00:00 16,4 3,1 - 31 17 46 25 WSW 1033,4 50 0,0
26.05.2020 15:00:00 17,1 4,7 - 31 17 48 26 W 1033,1 35 0,0
26.05.2020 14:00:00 16,6 4,3 - 35 19 48 26 W 1032,6 30 0,0
26.05.2020 13:00:00 15,1 5,0 - 28 15 - - W 1032,4 30 0,0
26.05.2020 12:00:00 14,0 5,8 - 22 12 - - W 1032,2 40 0,0
26.05.2020 11:00:00 13,3 5,2 - 22 12 - - WSW 1031,9 40 0,0
26.05.2020 10:00:00 13,5 4,9 11,0 28 15 - - W 1031,5 35 0,0
26.05.2020 09:00:00 11,5 6,3 - 16 9 - - SSW 1031,2 16 0,0
26.05.2020 08:00:00 11,9 6,1 - 11 6 - - S 1030,7 24 0,0
26.05.2020 07:00:00 10,8 5,3 - 15 8 - - SSW 1030,2 16 0,0
26.05.2020 06:00:00 9,0 4,8 - 9 5 - - S 1029,8 40 0,0
26.05.2020 05:00:00 8,5 4,6 - 13 7 - - SW 1029,2 35 0,0
26.05.2020 04:00:00 8,8 6,3 - 22 12 - - WSW 1028,5 45 0,0
26.05.2020 03:00:00 9,8 7,6 - 15 8 - - SW 1028,1 45 0,0
26.05.2020 02:00:00 11,2 8,2 - 16 9 - - SSW 1027,6 50 0,0
26.05.2020 01:00:00 11,1 8,3 - 8 4 - - SSW 1027,6 45 0,0
26.05.2020 00:00:00 12,1 8,3 - 16 9 - - SW 1027,2 50 0,0
25.05.2020 23:00:00 13,9 8,3 - 24 13 - - SW 1026,9 50 0,0
25.05.2020 22:00:00 14,5 8,0 - 22 12 - - SW 1026,4 50 0,0
25.05.2020 21:00:00 15,1 7,8 - 18 10 46 25 SW 1025,8 50 0,0
25.05.2020 20:00:00 16,2 7,0 - 29 16 - - SW 1025,2 50 0,0
25.05.2020 19:00:00 15,9 7,1 - 26 14 - - SSW 1025,0 35 0,0
25.05.2020 18:00:00 17,0 6,7 - 31 17 - - SSW 1025,0 30 0,0
25.05.2020 17:00:00 16,4 7,2 - 24 13 - - S 1025,0 35 0,0
25.05.2020 16:00:00 14,4 8,4 - 15 8 - - SE 1025,3 20 0,0
25.05.2020 15:00:00 14,3 8,3 - 18 10 - - SE 1025,8 21 0,0
25.05.2020 14:00:00 14,8 7,7 - 21 11 - - SE 1026,4 40 0,0
25.05.2020 13:00:00 14,9 8,1 - 18 10 - - SSE 1027,1 30 0,0
25.05.2020 12:00:00 13,6 7,7 - 21 11 - - SSE 1027,3 45 0,0
25.05.2020 11:00:00 14,8 7,9 - 26 14 - - S 1027,2 30 0,0
25.05.2020 10:00:00 12,5 7,5 10,5 28 15 - - S 1027,7 35 0,0
25.05.2020 09:00:00 11,9 8,1 - 26 14 - - S 1027,9 18 0,0
25.05.2020 08:00:00 11,3 8,2 - 26 14 - - S 1027,9 16 0,0
25.05.2020 07:00:00 10,4 8,1 - 22 12 - - S 1028,0 23 0,0
25.05.2020 06:00:00 9,6 7,8 - 18 10 - - SSE 1028,2 19 0,0
25.05.2020 05:00:00 9,6 7,2 - 21 11 - - S 1028,1 25 0,0
25.05.2020 04:00:00 9,6 6,9 - 16 9 - - SSE 1027,9 27 0,0
25.05.2020 03:00:00 10,2 6,5 - 15 8 - - SSW 1027,9 35 0,0
25.05.2020 02:00:00 9,6 6,0 - 5 3 - - S 1027,6 26 0,0
25.05.2020 01:00:00 10,2 5,5 - 15 8 - - SW 1027,3 40 0,0
25.05.2020 00:00:00 10,7 5,3 - 11 6 - - SW 1027,4 28 0,0
24.05.2020 23:00:00 10,1 6,3 - 8 4 - - SSW 1027,2 23 0,0
24.05.2020 22:00:00 10,9 6,6 - 18 10 - - WSW 1026,2 25 0,0
24.05.2020 21:00:00 12,6 8,4 - 11 6 - - WSW 1025,8 23 0,0
24.05.2020 20:00:00 12,4 10,7 - 18 10 - - WNW 1025,0 28 0,0
24.05.2020 19:00:00 12,7 10,5 - 21 11 - - W 1024,4 22 0,0
24.05.2020 18:00:00 12,5 10,2 - 29 16 - - W 1023,9 19 0,0
24.05.2020 17:00:00 13,2 11,7 - 31 17 - - W 1023,2 15 0,2
24.05.2020 16:00:00 12,2 10,5 - 31 17 - - WNW 1022,5 3,4 0,0
24.05.2020 15:00:00 10,8 10,1 - 22 12 - - WNW 1021,8 7 0,0
24.05.2020 14:00:00 12,1 7,7 - 35 19 48 26 WNW 1020,5 35 0,0
24.05.2020 13:00:00 12,6 6,9 - 37 20 54 29 W 1019,3 35 0,0
24.05.2020 12:00:00 13,3 7,3 - 39 21 59 32 WNW 1017,9 23 0,0
24.05.2020 11:00:00 12,5 6,4 - 46 25 65 35 W 1016,8 35 0,0
24.05.2020 10:00:00 11,8 6,7 10,4 46 25 61 33 W 1015,7 18 0,0
24.05.2020 09:00:00 11,0 7,2 - 41 22 67 36 W 1014,7 15 0,0
24.05.2020 08:00:00 10,3 7,0 - 41 22 65 35 W 1013,7 19 0,0
24.05.2020 07:00:00 9,7 7,2 - 37 20 70 38 W 1012,4 15 0,0
24.05.2020 06:00:00 9,6 7,3 - 48 26 67 36 W 1010,7 19 0,0
24.05.2020 05:00:00 9,1 6,9 - 50 27 80 43 W 1008,8 25 0,0
24.05.2020 04:00:00 9,2 6,9 - 61 33 85 46 W 1006,6 22 0,0
24.05.2020 03:00:00 9,1 7,6 - 59 32 87 47 W 1005,8 22 0,0
24.05.2020 02:00:00 9,1 7,5 - 61 33 81 44 W 1005,0 23 0,0
24.05.2020 01:00:00 9,3 8,0 - 52 28 80 43 W 1004,3 11 0,0
24.05.2020 00:00:00 9,6 8,0 - 50 27 74 40 W 1003,3 13 0,0
23.05.2020 23:00:00 9,3 7,8 - 57 31 78 42 W 1002,0 9 0,2
23.05.2020 22:00:00 9,2 7,6 - 52 28 67 36 W 1001,0 11 0,4
23.05.2020 21:00:00 9,0 7,4 - 42 23 67 36 WSW 1000,3 11 0,4
23.05.2020 20:00:00 9,5 6,9 - 44 24 76 41 WSW 999,7 24 0,0
23.05.2020 19:00:00 10,1 6,7 - 44 24 72 39 WSW 999,3 11 0,0
23.05.2020 18:00:00 10,9 7,3 - 48 26 67 36 WSW 998,6 15 0,0
23.05.2020 17:00:00 11,5 7,1 - 37 20 57 31 WSW 997,9 20 0,2
23.05.2020 16:00:00 11,4 7,3 - 42 23 61 33 WSW 997,2 6 0,0
23.05.2020 15:00:00 11,8 8,6 - 37 20 59 32 WSW 996,4 45 0,0
23.05.2020 14:00:00 12,9 6,7 - 42 23 57 31 WSW 995,1 30 0,0

tt = temperature
td = dewpoint
tt -20cm = temperature -20cm
ff = wind speed
fx = gusts
dd = wind direction
ppp = reduced air pressure
vv = visibility
rr = precipitation

Next stations